Regional Weather Roundup
Issued by NWS

Home | Current Version | Previous Version | Text Only | Print | Product List | Glossary Off
Versions: 1 2 3 4 5 6 7 8 9 10 11 12 13 14 15 16 17 18 19 20 21 22 23 24 25 26 27 28 29 30 31 32 33 34 35 36 37 38 39 40 41 42 43 44 45 46 47 48 49 50

000
ASUS43 KIND 250559
RWRIN

WEATHER ROUNDUP FOR INDIANA
NATIONAL WEATHER SERVICE INDIANAPOLIS IN
200 AM EDT SAT MAR 25 2017

NOTE: "FAIR" INDICATES FEW OR NO CLOUDS BELOW 12,000 FEET WITH NO
SIGNIFICANT WEATHER AND/OR OBSTRUCTIONS TO VISIBILITY.

* - STATION DOES NOT REPORT WEATHER SUCH AS PRECIPITATION OR FOG.

+ - STATION NOT QUALITY CONTROLLED BY THE NATIONAL WEATHER SERVICE.
    USE DATA WITH CAUTION...ESPECIALLY DEWPOINT AND RELATIVE
    HUMIDITY OBSERVATIONS.

INZ001>003-010>013-019-020-250700-
NORTHWEST INDIANA

CITY           SKY/WX    TMP DP  RH WIND       PRES   REMARKS
KNOX *+        CLOUDY    46  27  46 N10       30.03S
MONTICELLO +   CLOUDY    62  52  68 S10       30.01F
6HR MIN TEMP:  62; 6HR MAX TEMP:  68;


$$

LMZ046-743>745-250700-
SOUTHERN LAKE MICHIGAN

STATION/POSITION TIME  TEMP    WIND        PRES    WAVE
                       AIR SEA DIR/SP/G            HT
                 (UTC) (F)     (DEG/KT/KT) (MB)    (FT)
BURNS HARBOR     0540   38      10/  4/  7 1018.6S
MICHIGAN CITY    0530   38     330/  4/  5   N/A

$$

INZ004-005-014>016-021>024-250700-
NORTH CENTRAL INDIANA

CITY           SKY/WX    TMP DP  RH WIND       PRES   REMARKS
GOSHEN         CLOUDY    57  50  77 S3        30.03F
6HR MIN TEMP:  57; 6HR MAX TEMP:  68;

SOUTH BEND     CLOUDY    46  43  89 W9        30.04S
6HR MIN TEMP:  46; 6HR MAX TEMP:  70; 6HR PCP: TRACE;


$$

INZ006>009-017-018-025>027-250700-
NORTHEAST INDIANA

CITY           SKY/WX    TMP DP  RH WIND       PRES   REMARKS
ANGOLA *+      MOCLDY    63  55  77 NW5       30.04R
FORT WAYNE     CLOUDY    56  50  80 S7        30.05S
6HR MIN TEMP:  56; 6HR MAX TEMP:  69;

KENDALLVILLE + CLOUDY    60  53  75 SW7       30.04S

$$

INZ028-029-035-036-043>045-051>053-250700-
WEST CENTRAL INDIANA

CITY           SKY/WX    TMP DP  RH WIND       PRES   REMARKS
CRAWFORDSVL +  CLOUDY    62  52  69 S12       30.03F
6HR MIN TEMP:  61; 6HR MAX TEMP:  66;

GREENCASTLE +  CLOUDY    63  50  63 S9        30.05F
LAFAYETTE      CLOUDY    64  53  67 S7        30.01F
6HR MIN TEMP:  62; 6HR MAX TEMP:  69;

TERRE HAUTE    PTCLDY    63  51  65 S8        30.02F
6HR MIN TEMP:  63; 6HR MAX TEMP:  69;


$$

INZ030>032-037>040-046>048-054>057-064-065-250700-
CENTRAL INDIANA

CITY           SKY/WX    TMP DP  RH WIND       PRES   REMARKS
INDIANAPOLIS   CLOUDY    63  51  65 S9        30.05F
6HR MIN TEMP:  63; 6HR MAX TEMP:  69;

-EAGLE CREEK   CLOUDY    64  51  62 S6        30.05F
6HR MIN TEMP:  64; 6HR MAX TEMP:  70;

KOKOMO +       CLOUDY    62  53  72 S12       30.05S
6HR MIN TEMP:  61; 6HR MAX TEMP:  67;

SHELBYVILLE    MOCLDY    64  52  64 S12       30.07F
6HR MIN TEMP:  63; 6HR MAX TEMP:  70;


$$

INZ033-034-041-042-049-050-058-059-250700-
EAST CENTRAL INDIANA

CITY           SKY/WX    TMP DP  RH WIND       PRES   REMARKS
MUNCIE         CLOUDY    64  52  64 S10       30.06S
6HR MIN TEMP:  64; 6HR MAX TEMP:  71;

RICHMOND +     CLOUDY    55  50  82 S10       30.11F

$$

INZ060-061-067>069-081>083-085>088-250700-
SOUTHWEST INDIANA

CITY           SKY/WX    TMP DP  RH WIND       PRES   REMARKS
EVANSVILLE     CLOUDY    65  53  65 SE7       30.04F
6HR MIN TEMP:  61; 6HR MAX TEMP:  71;

HUNTINGBURG *+ CLOUDY    65  54  67 SE10      30.06F
6HR MIN TEMP:  60; 6HR MAX TEMP:  70;


$$

INZ062-063-066-070>080-084-089>092-250700-
SOUTH CENTRAL AND SOUTHEAST INDIANA

CITY           SKY/WX    TMP DP  RH WIND       PRES   REMARKS
BLOOMINGTON    CLOUDY    63  50  62 SE7       30.06F
6HR MIN TEMP:  63; 6HR MAX TEMP:  70;

MADISON *+     MOCLDY    63  50  63 S5        30.13F
SEYMOUR +      CLOUDY    64  52  63 S7        30.09F

$$





USA.gov is the U.S. government's official web portal to all federal, state and local government web resources and services.